DLH5682 EDDF-EGKK

Flight info

Callsign DLH5682
Flight time 1h 8m
Altitude 36000
Route OBOKA3W OBOKA Z29 TORNU DCT BREDA DCT VICOT DCT GALSO Q63 ARREK Y4 TEBRA DCT ABTUM DCT ARNUN DCT LARCK
Aircraft A35K/H-SDE2E3GHIJ3J4J5LM1ORWXY/LB1D1

Departure

Time 2026-05-06 15:14
Airport Frankfurt Main Airport (EDDF)

Arrival

Time 2026-05-06 16:23
Airport London Gatwick Airport (EGKK)
Time Latitude Longitude Altitude Speed Heading
2026-05-06 14:33 50.04763 8.57755 358 ft 0 kts 270°
2026-05-06 14:58 50.04763 8.57766 366 ft 3 kts 270°
2026-05-06 14:58 50.04763 8.57795 360 ft 3 kts 276°
2026-05-06 14:59 50.04761 8.57825 363 ft 3 kts 271°
2026-05-06 14:59 50.04761 8.57853 363 ft 3 kts 271°
2026-05-06 14:59 50.04761 8.57881 362 ft 3 kts 271°
2026-05-06 14:59 50.04760 8.57908 362 ft 3 kts 271°
2026-05-06 15:00 50.04760 8.57936 356 ft 3 kts 271°
2026-05-06 15:00 50.04761 8.57964 358 ft 3 kts 243°
2026-05-06 15:00 50.04763 8.57972 360 ft 0 kts 230°
2026-05-06 15:01 50.04765 8.57977 361 ft 2 kts 230°
2026-05-06 15:01 50.04775 8.57995 365 ft 2 kts 230°
2026-05-06 15:02 50.04785 8.58013 366 ft 2 kts 230°
2026-05-06 15:02 50.04795 8.58031 366 ft 2 kts 230°
2026-05-06 15:02 50.04805 8.58051 363 ft 3 kts 243°
2026-05-06 15:02 50.04809 8.58063 365 ft 1 kts 253°
2026-05-06 15:03 50.04808 8.58060 365 ft 0 kts 252°
2026-05-06 15:07 50.04793 8.58001 363 ft 4 kts 244°
2026-05-06 15:07 50.04787 8.57983 366 ft 3 kts 241°
2026-05-06 15:08 50.04780 8.57968 365 ft 2 kts 231°
2026-05-06 15:08 50.04757 8.57957 365 ft 6 kts 186°
2026-05-06 15:08 50.04696 8.57972 358 ft 12 kts 163°
2026-05-06 15:08 50.04619 8.58014 354 ft 13 kts 156°
2026-05-06 15:09 50.04570 8.58135 351 ft 16 kts 81°
2026-05-06 15:09 50.04615 8.58308 353 ft 18 kts 70°
2026-05-06 15:09 50.04638 8.58414 336 ft 5 kts 72°
2026-05-06 15:09 50.04640 8.58423 335 ft 0 kts 73°
2026-05-06 15:10 50.04646 8.58459 336 ft 9 kts 78°
2026-05-06 15:10 50.04619 8.58567 329 ft 11 kts 140°
2026-05-06 15:10 50.04603 8.58582 329 ft 0 kts 154°
2026-05-06 15:11 50.04587 8.58592 327 ft 11 kts 159°
2026-05-06 15:11 50.04501 8.58579 330 ft 12 kts 213°
2026-05-06 15:12 50.04467 8.58514 331 ft 0 kts 251°
2026-05-06 15:13 50.04466 8.58507 332 ft 6 kts 251°
2026-05-06 15:14 50.04362 8.58053 333 ft 83 kts 249°
2026-05-06 15:14 50.04079 8.56871 366 ft 147 kts 250°
2026-05-06 15:14 50.03689 8.55329 1014 ft 154 kts 250°
2026-05-06 15:14 50.03418 8.54289 1479 ft 160 kts 249°
2026-05-06 15:15 50.02976 8.52638 2125 ft 169 kts 247°
2026-05-06 15:15 50.02494 8.50998 2938 ft 169 kts 245°
2026-05-06 15:15 50.02365 8.49066 3287 ft 195 kts 276°
2026-05-06 15:15 50.02622 8.46903 3791 ft 210 kts 279°
2026-05-06 15:16 50.02833 8.44613 4457 ft 217 kts 269°
2026-05-06 15:16 50.02718 8.42257 4909 ft 221 kts 260°
2026-05-06 15:16 50.02470 8.39892 5014 ft 222 kts 258°
2026-05-06 15:16 50.02194 8.37531 5005 ft 227 kts 257°
2026-05-06 15:17 50.01890 8.34971 5013 ft 251 kts 258°
2026-05-06 15:17 50.01568 8.32267 5017 ft 256 kts 258°
2026-05-06 15:17 50.01323 8.29517 5015 ft 258 kts 266°
2026-05-06 15:17 50.01580 8.26765 5018 ft 261 kts 285°
2026-05-06 15:18 50.02270 8.24136 5009 ft 263 kts 292°
2026-05-06 15:18 50.03039 8.21549 5010 ft 264 kts 292°
2026-05-06 15:18 50.03815 8.18969 5015 ft 263 kts 292°
2026-05-06 15:18 50.04580 8.16394 5019 ft 262 kts 290°
2026-05-06 15:19 50.05314 8.13805 5014 ft 262 kts 288°
2026-05-06 15:19 50.06193 8.11311 5004 ft 265 kts 301°
2026-05-06 15:19 50.07327 8.09046 5120 ft 267 kts 306°
2026-05-06 15:19 50.08521 8.06791 5657 ft 274 kts 307°
2026-05-06 15:20 50.09733 8.04502 6776 ft 272 kts 306°
2026-05-06 15:20 50.10924 8.02225 7909 ft 272 kts 306°
2026-05-06 15:20 50.12119 7.99917 8968 ft 276 kts 306°
2026-05-06 15:20 50.13332 7.97565 9984 ft 280 kts 306°
2026-05-06 15:21 50.14572 7.95135 10687 ft 297 kts 305°
2026-05-06 15:21 50.15909 7.92506 11124 ft 322 kts 306°
2026-05-06 15:21 50.17353 7.89673 11572 ft 345 kts 306°
2026-05-06 15:21 50.18884 7.86686 12242 ft 358 kts 306°
2026-05-06 15:22 50.20457 7.83625 13163 ft 365 kts 307°
2026-05-06 15:22 50.22074 7.80540 13986 ft 371 kts 307°
2026-05-06 15:22 50.23702 7.77380 14833 ft 376 kts 307°
2026-05-06 15:22 50.25529 7.74419 15633 ft 384 kts 318°
2026-05-06 15:23 50.27818 7.72184 16437 ft 392 kts 332°
2026-05-06 15:23 50.30325 7.70409 17256 ft 399 kts 334°
2026-05-06 15:23 50.32896 7.68677 18072 ft 405 kts 334°
2026-05-06 15:23 50.35498 7.66921 18859 ft 409 kts 334°
2026-05-06 15:24 50.38088 7.65165 19678 ft 413 kts 334°
2026-05-06 15:24 50.40733 7.63358 20528 ft 417 kts 333°
2026-05-06 15:24 50.43402 7.61524 21325 ft 421 kts 333°
2026-05-06 15:24 50.46099 7.59668 22143 ft 425 kts 333°
2026-05-06 15:25 50.48820 7.57793 22945 ft 429 kts 333°
2026-05-06 15:25 50.51565 7.55898 23669 ft 434 kts 333°
2026-05-06 15:25 50.54345 7.53963 24305 ft 439 kts 332°
2026-05-06 15:25 50.57036 7.51685 24926 ft 441 kts 325°
2026-05-06 15:26 50.59641 7.49083 25550 ft 445 kts 323°
2026-05-06 15:26 50.62250 7.46407 26194 ft 450 kts 324°
2026-05-06 15:26 50.64888 7.43691 26810 ft 455 kts 326°
2026-05-06 15:26 50.67555 7.40950 27450 ft 460 kts 325°
2026-05-06 15:27 50.70251 7.38179 28065 ft 464 kts 326°
2026-05-06 15:27 50.72966 7.35388 28695 ft 469 kts 326°
2026-05-06 15:27 50.75716 7.32555 29265 ft 473 kts 326°
2026-05-06 15:27 50.78469 7.29684 29931 ft 475 kts 326°
2026-05-06 15:28 50.81240 7.26789 30393 ft 480 kts 326°
2026-05-06 15:28 50.84032 7.23874 30887 ft 483 kts 325°
2026-05-06 15:28 50.86856 7.20953 31312 ft 487 kts 326°
2026-05-06 15:28 50.89707 7.18022 31766 ft 491 kts 326°
2026-05-06 15:29 50.92584 7.15078 32238 ft 493 kts 326°
2026-05-06 15:29 50.95472 7.12144 32833 ft 493 kts 326°
2026-05-06 15:29 50.98368 7.09232 33444 ft 492 kts 325°
2026-05-06 15:29 51.01257 7.06342 34006 ft 491 kts 326°
2026-05-06 15:30 51.04155 7.03450 34455 ft 491 kts 326°
2026-05-06 15:30 51.07050 7.00568 34865 ft 492 kts 326°
2026-05-06 15:30 51.09961 6.97676 35272 ft 493 kts 326°
2026-05-06 15:30 51.12869 6.94792 35649 ft 493 kts 326°
2026-05-06 15:31 51.15793 6.91888 35836 ft 497 kts 326°
2026-05-06 15:31 51.21656 6.86054 35856 ft 497 kts 326°
2026-05-06 15:32 51.30448 6.77283 35853 ft 497 kts 326°
2026-05-06 15:32 51.36308 6.71423 35854 ft 497 kts 326°
2026-05-06 15:33 51.42160 6.65529 35861 ft 496 kts 326°
2026-05-06 15:33 51.47997 6.59620 35861 ft 496 kts 326°
2026-05-06 15:34 51.53835 6.53698 35873 ft 496 kts 326°
2026-05-06 15:34 51.59669 6.47766 35877 ft 496 kts 325°
2026-05-06 15:35 51.65439 6.41691 35882 ft 494 kts 320°
2026-05-06 15:35 51.70199 6.33854 35880 ft 488 kts 302°
2026-05-06 15:36 51.73117 6.24132 35880 ft 481 kts 283°
2026-05-06 15:36 51.73999 6.13530 35884 ft 476 kts 270°
2026-05-06 15:37 51.73930 6.02846 35885 ft 476 kts 266°
2026-05-06 15:37 51.73696 5.92171 35883 ft 476 kts 266°
2026-05-06 15:38 51.73508 5.81488 35890 ft 476 kts 267°
2026-05-06 15:38 51.73362 5.70882 35882 ft 476 kts 267°
2026-05-06 15:39 51.73221 5.60212 35885 ft 476 kts 267°
2026-05-06 15:39 51.73070 5.49536 35887 ft 476 kts 267°
2026-05-06 15:40 51.72906 5.38867 35888 ft 476 kts 267°
2026-05-06 15:40 51.72731 5.28196 35889 ft 476 kts 267°
2026-05-06 15:41 51.72547 5.17533 35901 ft 476 kts 267°
2026-05-06 15:41 51.72353 5.06877 35897 ft 476 kts 267°
2026-05-06 15:42 51.72149 4.96211 35899 ft 476 kts 267°
2026-05-06 15:42 51.71936 4.85551 35902 ft 476 kts 266°
2026-05-06 15:43 51.71713 4.74892 35896 ft 476 kts 267°
2026-05-06 15:43 51.71458 4.64236 35891 ft 476 kts 266°
2026-05-06 15:44 51.71191 4.53577 35893 ft 476 kts 266°
2026-05-06 15:44 51.70932 4.42911 35889 ft 476 kts 266°
2026-05-06 15:45 51.70671 4.32250 35876 ft 476 kts 266°
2026-05-06 15:45 51.70401 4.21588 35886 ft 476 kts 266°
2026-05-06 15:46 51.70119 4.10929 35879 ft 476 kts 266°
2026-05-06 15:46 51.69829 4.00277 35889 ft 476 kts 266°
2026-05-06 15:47 51.69528 3.89618 35886 ft 476 kts 266°
2026-05-06 15:47 51.69221 3.78988 35890 ft 474 kts 266°
2026-05-06 15:48 51.68904 3.68401 35902 ft 472 kts 265°
2026-05-06 15:48 51.68577 3.57817 35899 ft 473 kts 265°
2026-05-06 15:49 51.68242 3.47245 35913 ft 472 kts 265°
2026-05-06 15:49 51.67896 3.36670 35923 ft 473 kts 265°
2026-05-06 15:50 51.67542 3.26125 35920 ft 471 kts 265°
2026-05-06 15:50 51.67178 3.15581 35928 ft 471 kts 265°
2026-05-06 15:51 51.66805 3.05051 35929 ft 471 kts 265°
2026-05-06 15:51 51.66425 2.94577 35929 ft 471 kts 265°
2026-05-06 15:52 51.66033 2.84047 35938 ft 472 kts 265°
2026-05-06 15:52 51.65631 2.73484 35938 ft 472 kts 265°
2026-05-06 15:53 51.65221 2.62935 35942 ft 473 kts 265°
2026-05-06 15:53 51.64800 2.52381 35940 ft 472 kts 265°
2026-05-06 15:54 51.64370 2.41832 35948 ft 473 kts 265°
2026-05-06 15:54 51.63929 2.31274 35947 ft 473 kts 265°
2026-05-06 15:55 51.63479 2.20708 35947 ft 474 kts 265°
2026-05-06 15:55 51.63020 2.10152 35834 ft 469 kts 265°
2026-05-06 15:56 51.62789 2.04938 35183 ft 467 kts 265°
2026-05-06 15:56 51.62556 1.99718 34440 ft 468 kts 265°
2026-05-06 15:56 51.62307 1.94506 33769 ft 466 kts 264°
2026-05-06 15:56 51.61840 1.89342 32806 ft 469 kts 256°
2026-05-06 15:57 51.60773 1.84374 31876 ft 471 kts 244°
2026-05-06 15:57 51.59089 1.79860 31042 ft 471 kts 232°
2026-05-06 15:57 51.57158 1.75613 30199 ft 471 kts 236°
2026-05-06 15:57 51.55120 1.71503 29275 ft 470 kts 228°
2026-05-06 15:58 51.52905 1.67650 28465 ft 468 kts 226°
2026-05-06 15:58 51.50736 1.63768 28029 ft 467 kts 231°
2026-05-06 15:58 51.48899 1.59480 27951 ft 467 kts 240°
2026-05-06 15:58 51.47486 1.54875 27954 ft 466 kts 246°
2026-05-06 15:59 51.46240 1.50092 27957 ft 465 kts 248°
2026-05-06 15:59 51.45046 1.45274 27907 ft 464 kts 246°
2026-05-06 15:59 51.43581 1.40682 27642 ft 464 kts 239°
2026-05-06 15:59 51.41699 1.36486 27376 ft 464 kts 230°
2026-05-06 16:00 51.39421 1.32843 26787 ft 463 kts 221°
2026-05-06 16:00 51.36934 1.29597 26122 ft 459 kts 218°
2026-05-06 16:00 51.34390 1.26544 25488 ft 455 kts 217°
2026-05-06 16:00 51.31836 1.23594 24846 ft 451 kts 216°
2026-05-06 16:01 51.29300 1.20694 24262 ft 446 kts 216°
2026-05-06 16:01 51.26794 1.17819 23625 ft 442 kts 217°
2026-05-06 16:01 51.24310 1.14947 22883 ft 439 kts 217°
2026-05-06 16:01 51.21852 1.12085 22158 ft 435 kts 217°
2026-05-06 16:02 51.19422 1.09245 21453 ft 431 kts 217°
2026-05-06 16:02 51.17020 1.06431 20771 ft 427 kts 217°
2026-05-06 16:02 51.15438 1.04578 20303 ft 425 kts 217°
2026-05-06 16:02 51.13067 1.01802 19638 ft 421 kts 217°
2026-05-06 16:03 51.10716 0.99055 18989 ft 417 kts 217°
2026-05-06 16:03 51.08460 0.96192 18311 ft 414 kts 223°
2026-05-06 16:03 51.06446 0.92961 17554 ft 409 kts 230°
2026-05-06 16:03 51.04744 0.89375 16862 ft 404 kts 238°
2026-05-06 16:04 51.03351 0.85525 16150 ft 400 kts 243°
2026-05-06 16:04 51.02102 0.81590 15436 ft 397 kts 245°
2026-05-06 16:04 51.00929 0.77649 14797 ft 392 kts 246°
2026-05-06 16:04 50.99792 0.73734 14108 ft 389 kts 246°
2026-05-06 16:05 50.98662 0.69840 13387 ft 387 kts 246°
2026-05-06 16:05 50.97531 0.65984 12663 ft 384 kts 246°
2026-05-06 16:05 50.96399 0.62168 11967 ft 380 kts 246°
2026-05-06 16:05 50.95269 0.58393 11227 ft 378 kts 245°
2026-05-06 16:06 50.94141 0.54646 10524 ft 375 kts 246°
2026-05-06 16:06 50.93016 0.50930 9817 ft 373 kts 246°
2026-05-06 16:06 50.91973 0.47244 9413 ft 359 kts 250°
2026-05-06 16:06 50.91280 0.43534 9083 ft 343 kts 259°
2026-05-06 16:07 50.91043 0.39864 8790 ft 328 kts 272°
2026-05-06 16:07 50.91148 0.36336 8566 ft 314 kts 275°
2026-05-06 16:07 50.91307 0.32964 8323 ft 301 kts 275°
2026-05-06 16:07 50.91456 0.29716 8112 ft 289 kts 276°
2026-05-06 16:08 50.91594 0.26613 7983 ft 276 kts 276°
2026-05-06 16:08 50.91726 0.23598 7970 ft 274 kts 275°
2026-05-06 16:08 50.91868 0.20582 7973 ft 275 kts 277°
2026-05-06 16:08 50.92002 0.17562 7973 ft 274 kts 275°
2026-05-06 16:09 50.92141 0.14545 7972 ft 275 kts 275°
2026-05-06 16:09 50.92288 0.11519 7972 ft 275 kts 276°
2026-05-06 16:09 50.92440 0.08497 7967 ft 275 kts 276°
2026-05-06 16:09 50.92526 0.06610 7968 ft 275 kts 276°
2026-05-06 16:10 50.92600 0.04908 7966 ft 275 kts 275°
2026-05-06 16:10 50.92741 0.01887 7963 ft 275 kts 276°
2026-05-06 16:10 50.92877 -0.01131 7964 ft 274 kts 276°
2026-05-06 16:11 50.93000 -0.04133 7962 ft 272 kts 276°
2026-05-06 16:11 50.93127 -0.07117 7961 ft 271 kts 276°
2026-05-06 16:11 50.93462 -0.10047 7964 ft 270 kts 287°
2026-05-06 16:11 50.94040 -0.12871 7962 ft 269 kts 290°
2026-05-06 16:12 50.94647 -0.15631 7649 ft 264 kts 291°
2026-05-06 16:12 50.95247 -0.18384 7187 ft 264 kts 291°
2026-05-06 16:12 50.95845 -0.21130 6822 ft 261 kts 291°
2026-05-06 16:12 50.96426 -0.23801 6643 ft 251 kts 291°
2026-05-06 16:13 50.96981 -0.26356 6483 ft 240 kts 291°
2026-05-06 16:13 50.97513 -0.28822 6275 ft 233 kts 291°
2026-05-06 16:13 50.98034 -0.31234 5956 ft 230 kts 291°
2026-05-06 16:13 50.98550 -0.33640 5576 ft 230 kts 291°
2026-05-06 16:14 50.99064 -0.36047 5235 ft 231 kts 291°
2026-05-06 16:14 50.99568 -0.38452 5003 ft 229 kts 291°
2026-05-06 16:14 51.00060 -0.40863 4974 ft 230 kts 291°
2026-05-06 16:14 51.00550 -0.43279 4967 ft 230 kts 290°
2026-05-06 16:15 51.01045 -0.45688 4961 ft 229 kts 290°
2026-05-06 16:15 51.01551 -0.48093 4968 ft 230 kts 291°
2026-05-06 16:15 51.02059 -0.50505 4973 ft 230 kts 291°
2026-05-06 16:15 51.02565 -0.52915 4967 ft 230 kts 291°
2026-05-06 16:16 51.03072 -0.55325 4970 ft 230 kts 290°
2026-05-06 16:16 51.03577 -0.57739 4978 ft 230 kts 291°
2026-05-06 16:16 51.04142 -0.60114 4986 ft 235 kts 300°
2026-05-06 16:16 51.05185 -0.62225 4991 ft 250 kts 322°
2026-05-06 16:17 51.06778 -0.63269 4984 ft 252 kts 356°
2026-05-06 16:17 51.08459 -0.62634 4988 ft 253 kts 30°
2026-05-06 16:17 51.09608 -0.60561 4969 ft 249 kts 64°
2026-05-06 16:17 51.09889 -0.57937 4973 ft 235 kts 85°
2026-05-06 16:18 51.09960 -0.55399 4813 ft 225 kts 82°
2026-05-06 16:18 51.10162 -0.52948 4495 ft 222 kts 76°
2026-05-06 16:18 51.10487 -0.50543 4123 ft 223 kts 73°
2026-05-06 16:18 51.10833 -0.48129 3772 ft 224 kts 75°
2026-05-06 16:19 51.11160 -0.45706 3445 ft 224 kts 75°
2026-05-06 16:19 51.11489 -0.43295 3142 ft 222 kts 75°
2026-05-06 16:19 51.11820 -0.40894 2831 ft 221 kts 74°
2026-05-06 16:19 51.12144 -0.38524 2542 ft 214 kts 75°
2026-05-06 16:20 51.12444 -0.36327 2283 ft 199 kts 73°
2026-05-06 16:20 51.12730 -0.34244 1971 ft 180 kts 73°
2026-05-06 16:20 51.12982 -0.32413 1757 ft 164 kts 73°
2026-05-06 16:20 51.13214 -0.30712 1527 ft 152 kts 73°
2026-05-06 16:21 51.13434 -0.29116 1335 ft 143 kts 72°
2026-05-06 16:21 51.13647 -0.27565 1128 ft 141 kts 73°
2026-05-06 16:21 51.13851 -0.26084 939 ft 136 kts 72°
2026-05-06 16:21 51.14048 -0.24639 741 ft 129 kts 73°
2026-05-06 16:22 51.14239 -0.23252 578 ft 130 kts 75°
2026-05-06 16:22 51.14433 -0.21826 392 ft 130 kts 74°
2026-05-06 16:22 51.14623 -0.20441 248 ft 125 kts 73°
2026-05-06 16:22 51.14797 -0.19169 219 ft 106 kts 78°
2026-05-06 16:23 51.14904 -0.18419 216 ft 27 kts 72°
2026-05-06 16:23 51.14914 -0.18369 216 ft 3 kts 72°
2026-05-06 16:23 51.14930 -0.18293 220 ft 0 kts 71°
2026-05-06 16:23 51.14934 -0.18276 220 ft 3 kts 71°
2026-05-06 16:24 51.14952 -0.18193 220 ft 21 kts 71°
2026-05-06 16:24 51.15008 -0.17909 222 ft 20 kts 56°
2026-05-06 16:24 51.15057 -0.17797 222 ft 1 kts 47°
2026-05-06 16:24 51.15065 -0.17783 217 ft 0 kts 47°
2026-05-06 16:25 51.15068 -0.17778 217 ft 0 kts 46°
2026-05-06 16:25 51.15078 -0.17763 217 ft 11 kts 40°
2026-05-06 16:25 51.15184 -0.17751 221 ft 18 kts 336°
2026-05-06 16:25 51.15238 -0.17771 222 ft 0 kts
2026-05-06 16:26 51.15288 -0.17721 220 ft 16 kts 50°
2026-05-06 16:26 51.15303 -0.17551 220 ft 17 kts 96°
2026-05-06 16:26 51.15342 -0.17379 221 ft 18 kts 25°
2026-05-06 16:27 51.15409 -0.17383 220 ft 10 kts 347°
2026-05-06 16:27 51.15484 -0.17414 213 ft 13 kts 345°
2026-05-06 16:27 51.15581 -0.17452 219 ft 16 kts 346°
2026-05-06 16:27 51.15670 -0.17482 213 ft 13 kts 351°
2026-05-06 16:28 51.15714 -0.17499 219 ft 1 kts 343°
2026-05-06 16:28 51.15721 -0.17502 221 ft 0 kts 342°
2026-05-06 16:28 51.15724 -0.17503 220 ft 3 kts 342°